Location: Donald C. Martin Observatory
(38.3885°N, 82.3916°W)
Time: 06:09:15
(UTC-04:00)

Daily predictions for brighter satellites

Satellite Brightness Start Highest point End
(mag) Time Altitude Azimuth Time Altitude Azimuth Time Altitude Azimuth
Milstar 3 4.5 19:19:16 10° WSW 19:27:37 51° S 19:43:06 10° ESE
ATLAS CENTAUR R/B 3.3 19:26:17 10° SSW 19:30:29 67° ESE 19:43:10 10° NE
NOSS 3-2 (C) 3.5 19:33:09 10° SSW 19:39:10 82° ESE 19:45:44 10° NE
Cosmos 2237 Rocket 4.0 19:35:01 10° SW 19:40:09 34° WNW 19:45:18 10° N
Cosmos 192 4.3 19:35:49 10° S 19:40:45 74° ESE 19:45:43 10° NNE
Cosmos 1484 Rocket 2.7 19:39:24 10° SSE 19:43:14 82° ENE 19:47:09 10° N
SL-19 R/B 4.4 19:40:15 10° SSE 19:45:50 69° ENE 19:51:45 10° N
Cosmos 1758 4.0 19:42:36 10° SSE 19:46:18 34° E 19:50:02 10° NNE
ALOS 3.9 19:43:31 10° ESE 19:46:19 16° ENE 19:49:07 10° NNE
Helios 1A 4.1 19:46:54 10° ESE 19:50:19 24° ENE 19:53:44 10° NNE
Spot 2 Rocket 4.2 19:46:07 10° SE 19:50:35 33° ENE 19:55:04 10° N
ISS -2.6 19:48:40 10° SSW 19:51:40 35° SE 19:54:40 10° ENE
Cosmos 1544 4.0 19:52:43 10° SSE 19:55:55 27° E 19:59:08 10° NNE
Okean 3 Rocket 4.3 19:53:18 10° NNW 19:57:48 61° W 20:02:15 10° S
METEOR-M 4.4 19:53:46 10° SE 19:58:51 47° ENE 20:03:57 10° N
SL-8 R/B 3.7 19:54:39 10° SW 19:59:24 68° SE 20:04:09 10° ENE
Timation 1 Rocket 4.4 19:53:34 10° NNW 19:59:33 88° WSW 20:05:32 10° SSE
SL-16 R/B 3.2 19:56:08 10° SW 20:01:40 52° WNW 20:07:14 10° NNE
Meteor 1-21 Rocket 4.5 19:56:50 10° N 20:02:08 44° ENE 20:07:24 10° SSE
SAR-Lupe-4 3.5 19:58:50 10° SSE 20:02:23 88° ENE 20:05:59 10° NNW
Cosmos 1743 Rocket 4.4 19:59:58 10° NNE 20:03:53 30° ENE 20:07:46 10° SE
Cosmos 1766 4.0 20:00:09 10° SSW 20:04:02 57° W 20:07:59 10° N
Resurs 01 Rocket 2.0 20:01:18 10° SE 20:05:28 42° ENE 20:09:40 10° N
Cosmos 1378 3.9 20:04:56 10° NNW 20:08:36 56° W 20:12:14 10° S
HJ-1C 3.8 20:06:04 10° SE 20:09:14 41° ENE 20:12:26 10° N
Atlas Centaur 2 4.5 20:02:24 10° W 20:09:29 30° SSW 20:16:23 10° SSE
FENGYUN 3A 4.3 20:10:17 10° SE 20:15:02 33° ENE 20:19:48 10° N
USA 215 3.3 20:08:45 10° NE 20:15:12 60° SE 20:21:37 10° SSW
Meteor 2-12 Rocket 4.4 20:13:53 10° S 20:20:00 73° E 20:26:09 10° NNE
FREGAT/IRIS 2.9 20:19:23 10° S 20:22:27 71° W 20:25:32 10° NNW
Meteor 1-28 Rocket 3.8 20:19:35 10° N 20:23:16 58° WNW 20:26:54 10° SSW
Helios 1B rocket 2.3 20:20:36 10° NNE 20:24:42 69° ESE 20:28:48 10° S
Nadezhda 4 Rocket 4.0 20:18:37 10° N 20:24:48 58° E 20:30:53 10° SSE
Abrixas 3.0 20:22:18 10° WSW 20:25:15 56° NNW 20:26:59 22° NE
H-2A R/B 3.7 20:28:07 27° E 20:28:35 28° ENE 20:31:56 10° NNE
GP-B 4.2 20:27:24 10° NNE 20:30:37 25° ENE 20:30:37 25° ENE
Cosmos 1805 3.8 20:27:20 10° SSW 20:31:13 62° W 20:35:08 10° N
CZ-4B DEB 3.4 20:31:57 34° ENE 20:31:57 34° ENE 20:34:53 10° N
SeaSat 1 4.2 20:34:29 15° SE 20:34:29 15° SE 20:35:43 10° SSE
Cosmos 1092 Rocket 4.1 20:27:47 10° N 20:33:46 49° E 20:39:40 10° SSE
Cosmos 1346 2.8 20:31:30 10° N 20:34:29 84° E 20:36:08 24° SSE
GPS 2-04 Rocket1 2.9 20:32:36 10° WSW 20:35:56 44° S 20:36:40 38° SE
Gbstr 26 Del rocket 3.2 20:32:26 10° SW 20:36:42 63° SE 20:39:48 23° ENE
TELKOM 3 4.5 20:36:05 10° NW 20:38:01 28° N 20:38:01 28° N
Cosmos 1953 3.3 20:34:53 10° SSW 20:38:45 49° W 20:42:37 10° N
Cosmos 1943 Rocket 3.7 20:35:35 10° N 20:39:21 18° NE 20:39:37 18° NE
Meteor 1-29 3.0 20:38:54 10° N 20:42:25 81° WNW 20:45:53 10° SSW
Cosmos 1943 3.2 20:37:32 10° S 20:43:01 55° ESE 20:48:30 10° NNE
Cosmos 2369 Rocket 2.6 20:38:08 10° N 20:43:30 42° ENE 20:45:20 32° ESE
Cosmos-2242 4.0 20:42:47 10° SSW 20:47:01 49° W 20:51:17 10° N
Cosmos 1634 Rocket 4.1 20:41:55 10° SSE 20:47:56 52° E 20:53:56 10° NNE
Cosmos 1603 4.4 20:43:40 10° SW 20:49:17 56° WNW 20:54:58 10° NNE
Cosmos 2151 3.9 20:49:16 10° N 20:52:06 31° NE 20:52:06 31° NE
Cosmos 1733 3.0 20:49:54 10° S 20:53:45 72° E 20:57:37 10° NNE
Cosmos 1470 2.6 20:51:49 10° S 20:55:42 86° W 20:59:36 10° N
OAO 3 Rocket 3.7 20:51:39 10° W 20:56:14 48° S 20:57:20 40° SSE
Cosmos 839 Rocket 4.3 20:54:16 10° NNW 21:01:43 56° NE 21:03:47 41° ESE
Cosmos 1674 2.9 21:01:13 10° NNW 21:05:05 68° W 21:06:19 40° SSW
ASTEX 1 3.4 21:00:12 10° N 21:05:08 82° W 21:10:00 10° S
Cosmos 2195 Rocket 4.5 21:01:50 10° N 21:08:06 59° E 21:10:05 42° SE
Cosmos 1842 Rocket 4.1 21:07:03 10° SSW 21:11:18 56° W 21:15:35 10° N
Cosmos 1500 Rocket 3.9 21:08:10 10° NNW 21:12:35 64° W 21:14:49 28° SSW
CENTAUR R/B 2.6 21:12:30 10° SW 21:18:29 75° WNW 21:25:16 10° NNE
ATLAS 5 CENTAUR R/B 4.4 21:17:35 10° W 21:20:58 18° NW 21:24:33 10° N
Meteor 1-16 Rocket 3.9 21:22:42 74° SE 21:23:05 79° E 21:28:25 10° NNE
ALOS 3.0 21:20:32 22° SSW 21:23:19 50° W 21:27:52 10° NNW
ISS -0.9 21:25:25 10° W 21:27:24 23° NW 21:27:24 23° NW
Meteor 1-11 4.1 21:27:04 10° N 21:32:39 76° NE 21:32:39 76° NE
Cosmos 1627 Rocket 4.4 21:29:56 10° N 21:36:10 84° W 21:37:44 54° S
Envisat 4.3 21:42:35 30° N 21:42:35 30° N 21:45:11 10° N
Resurs 01 Rocket 4.4 21:39:19 10° SW 21:42:06 16° W 21:44:54 10° NW
USA 215 4.3 21:53:08 16° NNE 21:58:01 42° NNW 22:04:02 10° W
Cosmos 2279 Rocket 4.4 22:09:41 58° WNW 22:09:41 58° WNW 22:15:29 10° N
Cosmos 1943 Rocket 3.6 22:18:03 10° NNW 22:21:10 33° NW 22:21:10 33° NW
CZ-3A R/B 4.3 21:48:11 10° SSW 22:26:53 81° SE 22:27:52 74° E
Cosmos 2369 Rocket 4.0 22:22:42 10° NW 22:27:10 25° W 22:27:10 25° W
